TimeEDT,TemperatureF,Dew PointF,Humidity,Sea Level PressureIn,VisibilityMPH,Wind Direction,Wind SpeedMPH,Gust SpeedMPH,PrecipitationIn,Events,Conditions,WindDirDegrees,DateUTC
12:53 AM,73.9,55.9,53,30.18,10.0,East,6.9,-,N/A,,Partly Cloudy,80,2013-05-15 04:53:00
1:53 AM,73.0,55.9,55,30.16,10.0,ENE,6.9,-,N/A,,Partly Cloudy,70,2013-05-15 05:53:00
2:53 AM,73.0,55.9,55,30.14,10.0,East,6.9,-,N/A,,Clear,80,2013-05-15 06:53:00
3:53 AM,73.0,57.9,59,30.14,10.0,NE,9.2,-,N/A,,Clear,50,2013-05-15 07:53:00
4:53 AM,73.9,59.0,59,30.14,10.0,East,9.2,-,N/A,,Partly Cloudy,80,2013-05-15 08:53:00
5:53 AM,73.9,60.1,62,30.15,10.0,East,10.4,-,N/A,,Mostly Cloudy,90,2013-05-15 09:53:00
6:53 AM,73.9,59.0,59,30.16,10.0,East,8.1,-,N/A,,Mostly Cloudy,90,2013-05-15 10:53:00
7:53 AM,75.0,57.0,53,30.17,10.0,ENE,10.4,-,N/A,,Mostly Cloudy,70,2013-05-15 11:53:00
8:53 AM,77.0,57.0,50,30.18,10.0,ENE,11.5,-,N/A,,Partly Cloudy,70,2013-05-15 12:53:00
9:53 AM,77.0,59.0,54,30.19,10.0,East,9.2,-,N/A,,Clear,80,2013-05-15 13:53:00
10:53 AM,78.1,59.0,52,30.20,10.0,ENE,13.8,18.4,N/A,,Clear,60,2013-05-15 14:53:00
11:53 AM,79.0,55.9,45,30.20,10.0,East,12.7,-,N/A,,Clear,80,2013-05-15 15:53:00
12:53 PM,81.0,57.0,44,30.20,10.0,East,13.8,-,N/A,,Clear,80,2013-05-15 16:53:00
1:53 PM,80.1,57.9,47,30.18,10.0,ENE,13.8,-,N/A,,Partly Cloudy,70,2013-05-15 17:53:00
2:53 PM,80.1,61.0,52,30.16,10.0,ENE,12.7,-,N/A,,Scattered Clouds,70,2013-05-15 18:53:00
3:53 PM,80.1,61.0,52,30.14,10.0,East,12.7,-,N/A,,Scattered Clouds,80,2013-05-15 19:53:00
4:53 PM,79.0,62.1,56,30.12,10.0,ENE,13.8,-,N/A,,Scattered Clouds,60,2013-05-15 20:53:00
5:53 PM,79.0,63.0,58,30.12,10.0,East,10.4,-,N/A,,Scattered Clouds,80,2013-05-15 21:53:00
6:53 PM,78.1,62.1,58,30.11,10.0,East,12.7,-,N/A,,Scattered Clouds,90,2013-05-15 22:53:00
7:53 PM,75.9,61.0,60,30.11,10.0,East,11.5,19.6,N/A,,Scattered Clouds,100,2013-05-15 23:53:00
8:53 PM,75.0,60.1,60,30.12,10.0,East,15.0,20.7,N/A,,Partly Cloudy,100,2013-05-16 00:53:00
9:53 PM,75.0,60.1,60,30.13,10.0,East,12.7,20.7,N/A,,Partly Cloudy,100,2013-05-16 01:53:00
10:53 PM,75.0,57.9,55,30.14,10.0,East,13.8,-,N/A,,Partly Cloudy,100,2013-05-16 02:53:00
11:53 PM,73.9,57.0,55,30.13,10.0,East,12.7,-,N/A,,Partly Cloudy,100,2013-05-16 03:53:00